User: anonymous   Login
Location: Unspecified
(0.0000°N, 0.0000°E)
Time: 20:44:38
(UTC+00:00)
Language:

YAOGAN 12 - Orbit

View from above orbital plane
View from above orbital plane
View from above satellite
View from above satellite

Ground track
Ground track

The orbit is defined by the following mean orbital elements,

1 37875U          26150.50108566 +.00000000 +00000-0 +53909-3 0 00007
2 37875  97.1155 189.9026 0008054 291.7921  68.2461 15.26353081    04
Epoch (UTC): 30 May 2026 12:01:33
Eccentricity: 0.0008054
inclination: 97.1155°
perigee height: 481 km
apogee height: 492 km
right ascension of ascending node: 189.9026°
argument of perigee: 291.7921°
revolutions per day: 15.26353081
mean anomaly at epoch: 68.2461°

The dashed part of the orbit path shows where the satellite is in the earth's shadow,  

DLR